Regional Weather Roundup
Issued by NWS

Home | Current Version | Previous Version | Text Only | Print | Product List | Glossary Off
Versions: 1 2 3 4 5 6 7 8 9 10 11 12 13 14 15 16 17 18 19 20 21 22 23 24 25 26 27 28 29 30 31 32 33 34 35 36 37 38 39 40 41 42 43 44 45 46 47 48 49 50

000
ASUS45 KCYS 271710
RWRWY

WYOMING REGIONAL WEATHER ROUNDUP
NATIONAL WEATHER SERVICE CHEYENNE WY
1100 AM MDT THU APR 27 2017

NOTE:  "FAIR" INDICATES FEW OR NO CLOUDS BELOW 12,000 FEET
WITH NO SIGNIFICANT WEATHER AND/OR OBSTRUCTIONS TO VISIBILITY.

WYZ001-271800-
YELLOWSTONE NATIONAL PARK

CITY           SKY/WX    TMP DP  RH WIND       PRES   REMARKS
LK YELLOWSTONE NOT AVBL
W YELLOWSTONE  NOT AVBL

$$
WYZ002>013-054>058-071-098>099-271800-
NORTHERN WYOMING

CITY           SKY/WX    TMP DP  RH WIND       PRES   REMARKS
JACKSON        FLURRIES  34  28  80 S5        29.65R WCI  30
CODY           CLOUDY    41  35  79 N14       29.60S
GREYBULL       CLOUDY    44  36  73 NW23G30   29.54S
WORLAND        CLOUDY    42  38  85 N16       29.56R
SHERIDAN       CLOUDY    37  34  89 CALM      29.59R
BUFFALO        MIX PCPN  36  32  85 N18       29.56R WCI  26
GILLETTE       CLOUDY    40  35  83 SE9       29.56S WCI  34
HULETT         PTSUNNY   45  32  61 E12G17    29.59S
NEWCASTLE      FAIR      43  32  65 S18G25    29.57F

$$
WYZ014>020-022>026-101>103-271800-
CENTRAL WYOMING

CITY           SKY/WX    TMP DP  RH WIND       PRES   REMARKS
BIG PINEY      FAIR      40  24  53 NW18G29   29.62R WCI  31
PINEDALE       LGT SNOW  32  30  93 NW17      29.62S WCI  21
DUBOIS         LGT SNOW  32  28  86 NW13      29.56R WCI  22
LANDER         CLOUDY    37  33  85 NW13G24   29.52R THUNDER WCI  29
RIVERTON       FAIR      46  36  68 N17G28    29.52S
CASPER         PTSUNNY   44  37  76 N16       29.51S
DOUGLAS        CLOUDY    46  38  73 SE15      29.52S

$$
WYZ021-027>030-104>119-271800-
SOUTHERN WYOMING

CITY           SKY/WX    TMP DP  RH WIND       PRES   REMARKS
EVANSTON       CLOUDY    32  23  69 W21G29    29.75R WCI  20
KEMMERER       FLURRIES  32  27  80 W28G40    29.69R WCI  18
FORT BRIDGER   CLOUDY    35  26  68 W32G44    29.74R WCI  22
ROCK SPRINGS   CLOUDY    39  26  59 W31G41    29.64S WCI  27
DIXON            N/A     40  25  54 W18G28    29.69R WCI  31
RAWLINS        CLOUDY    40  31  70 W23G29    29.58S WCI  30
SARATOGA       FAIR      36  27  69 W16       29.62S WCI  26
LARAMIE        LGT RAIN  40  32  73 NE7       29.54F
CHEYENNE       CLOUDY    41  36  82 E6        29.56S
TORRINGTON     LGT RAIN  45  41  86 S6        29.55S
PINE BLUFFS    LGT RAIN  41  37  87 N8        29.57F

$$



USA.gov is the U.S. government's official web portal to all federal, state and local government web resources and services.